Location: Ertinghausen
(51.6624°N, 9.7874°E)
Time: 21:57:56
(UTC+00:00)

CZ-2C R/B - Pass Details

Date: 20 August 2024
Orbit: 703 x 904 km, 98.2° (Epoch: 07 September)

Event Time Altitude Azimuth Distance (km) Brightness Sun altitude
Rises 00:18:00 0° 23° (NNE) 3,265 7.6 -24.9°
Reaches altitude 10° 00:20:40 10° 36° (NE) 2,366 6.4 -24.8°
Maximum altitude 00:25:00 26° 92° (E) 1,581 4.7 -24.7°
Enters shadow 00:26:52 21° 123° (ESE) 1,777 4.7 -24.6°
